Tracking 28529 objects as of 25-Feb-2024
HD Live streaming from Space Station
objects crossing your sky now

STARLINK-4542

Track STARLINK-4542 now!
10-day predictions
STARLINK-4542 is classified as:


NORAD ID: 53435
Int'l Code: 2022-097AZ
Perigee: 545.8 km
Apogee: 548.0 km
Inclination: 53.2 °
Period: 95.4 minutes
Semi major axis: 6917 km
RCS: Unknown
Launch date: August 10, 2022
Source: United States (US)
Launch site: AIR FORCE EASTERN TEST RANGE (AFETR)
Your satellite tracking list
Your tracking list is empty




NASA's NSSDC Master Catalog

Two Line Element Set (TLE):
1 53435U 22097AZ  24055.59532064  .00001731  00000-0  12685-3 0  9997
2 53435  53.2178 204.2912 0001544  67.9233 292.1923 15.08839017 86433
Source of the keplerian elements: AFSPC